Voltar ao catálogo

COSMOS 970

AtivoMilitarLEO
NORAD 10531·PAYLOAD·🇷🇺 Russia

Lançado Dec 21, 1977 de Baikonur Cosmodrome

Loading…

Próximas Passagens (próximas 24 horas)

TLE

AtualizadoSource: Space-Track

Época: Sep 14, 2026, 12:42 UTC

1 10531U 77121A   26257.52983112 -.00000059  00000-0  22517-4 0  9997
2 10531  65.8537 305.6323 0140662 158.5308 202.1728 13.59869659811594

Acompanhe COSMOS 970 em tempo real com AllMySat

Download on the App Store